Clear with few low clouds
Partly cloudy
Partly cloudy
Partly cloudy
Partly cloudy
Clear with few low clouds
Clear with few low clouds
(°F)
69°
71°
72°
73°
73°
72°
70°
(°F)
67°
72°
73°
74°
74°
73°
71°
E
E
ENE
ENE
NE
NE
NE
(mph)
9-13
3-13
3-14
3-15
4-16
5-8
5-7
(in)
0
0
0
0
0
0
0
(%)
0
0
0
0
0
0
0

Sun elevation

/ 44.3°
sun-icon
UV 6
07:06
18:12
Waxing crescent moon (76°)
11:07
23:57

METAR for Indore (VAID)

Time Conditions Temperature/
Dewpoint
Wind Visibility Weather Clouds Pressure Change Raw
IFR 68°F / 59°F 50º 8kt 2000m Haze Vertical Visibility of 0ft.
Scattered Clouds 10000ft
1018 No Significant change VAID 270800Z 05008KT 2000 HZ SCT020 SCT100 20/15 Q1018 NOSIG
IFR 68°F / 59°F 20º 8kt 2000m Haze Vertical Visibility of 0ft.
Scattered Clouds 10000ft
1018 No Significant change VAID 270730Z 02008KT 2000 HZ SCT020 SCT100 20/15 Q1018 NOSIG
IFR 68°F / 60.8°F 60º 6kt 2000m Haze Vertical Visibility of 0ft.
Scattered Clouds 10000ft
1018 No Significant change VAID 270700Z 06006KT 2000 HZ SCT020 SCT100 20/16 Q1018 NOSIG
IFR 68°F / 60.8°F 70º 8kt 2000m Haze Vertical Visibility of 0ft.
Scattered Clouds 10000ft
1019 No Significant change VAID 270630Z 07008KT 2000 HZ SCT020 SCT100 20/16 Q1019 NOSIG
IFR 68°F / 60.8°F 50º 8kt 2000m Haze Vertical Visibility of 0ft.
Scattered Clouds 10000ft
1019 No Significant change VAID 270600Z 05008KT 2000 HZ SCT020 SCT100 20/16 Q1019 NOSIG
IFR 66.2°F / 60.8°F 60º 7kt 2000m Haze Vertical Visibility of 0ft.
Scattered Clouds 10000ft
1020 Becoming: 3000M Haze . VAID 270530Z 06007KT 2000 HZ SCT020 SCT100 19/16 Q1020 BECMG 3000M HZ
IFR 64.4°F / 60.8°F 70º 9kt 2000m Mist Vertical Visibility of 0ft.
Broken Clouds 10000ft
1020 No Significant change VAID 270500Z 07009KT 2000 BR SCT018 BKN100 18/16 Q1020 NOSIG
LIFR 62.6°F / 59°F 70º 9kt 1500m Mist Vertical Visibility of 0ft.
Broken Clouds 10000ft
1020 No Significant change VAID 270430Z 07009KT 1500 BR SCT018 BKN100 17/15 Q1020 NOSIG
LIFR 62.6°F / 59°F 70º 9kt 1500m Mist Vertical Visibility of 0ft.
Broken Clouds 10000ft
1020 No Significant change VAID 270400Z 07009KT 1500 BR SCT018 BKN100 17/15 Q1020 NOSIG
LIFR 62.6°F / 59°F 60º 10kt 1500m Mist Vertical Visibility of 0ft.
Broken Clouds 10000ft
1020 No Significant change VAID 270330Z 06010KT 1500 BR SCT018 BKN100 17/15 Q1020 NOSIG
LIFR 60.8°F / 57.2°F 50º 8kt 1200m Mist Vertical Visibility of 0ft.
Broken Clouds 10000ft
1020 No Significant change VAID 270300Z 05008KT 1200 BR SCT018 BKN100 16/14 Q1020 NOSIG
LIFR 60.8°F / 57.2°F 50º 7kt 1200m Mist Vertical Visibility of 0ft.
Broken Clouds 10000ft
1019 No Significant change VAID 270230Z 05007KT 1200 BR SCT018 BKN100 16/14 Q1019 NOSIG
LIFR 60.8°F / 57.2°F 50º 8kt 1200m Mist Vertical Visibility of 0ft.
Broken Clouds 10000ft
1019 No Significant change VAID 270200Z 05008KT 1200 BR SCT018 BKN100 16/14 Q1019 NOSIG
LIFR 60.8°F / 57.2°F 50º 8kt 1200m Mist Vertical Visibility of 0ft.
Broken Clouds 10000ft
1019 No Significant change VAID 270130Z 05008KT 1200 BR SCT018 BKN100 16/14 Q1019 NOSIG
LIFR 60.8°F / 57.2°F 60º 8kt 1500m Mist Vertical Visibility of 0ft.
Broken Clouds 10000ft
1019 No Significant change VAID 270100Z 06008KT 1500 BR SCT018 BKN100 16/14 Q1019 NOSIG
LIFR 60.8°F / 57.2°F 50º 8kt 1500m Mist Vertical Visibility of 0ft.
Broken Clouds 10000ft
1018 No Significant change VAID 270000Z 05008KT 1500 BR SCT018 BKN100 16/14 Q1018 NOSIG
LIFR 60.8°F / 57.2°F 60º 8kt 1500m Mist Vertical Visibility of 0ft.
Broken Clouds 10000ft
1017 No Significant change VAID 262300Z 06008KT 1500 BR SCT018 BKN100 16/14 Q1017 NOSIG
LIFR 60.8°F / 57.2°F 50º 10kt 1500m Mist Vertical Visibility of 0ft.
Broken Clouds 10000ft
1018 No Significant change VAID 262100Z 05010KT 1500 BR SCT018 BKN100 16/14 Q1018 NOSIG
LIFR 60.8°F / 57.2°F 50º 6kt 1500m Mist Vertical Visibility of 0ft.
Broken Clouds 10000ft
1018 No Significant change VAID 261900Z 05006KT 1500 BR SCT018 BKN100 16/14 Q1018 NOSIG
LIFR 60.8°F / 57.2°F 50º 10kt 1500m Mist Vertical Visibility of 0ft.
Broken Clouds 10000ft
1018 No Significant change VAID 261800Z 05010KT 1500 BR SCT018 BKN100 16/14 Q1018 NOSIG
LIFR 60.8°F / 57.2°F 50º 9kt 1500m Mist Vertical Visibility of 0ft.
Broken Clouds 10000ft
1019 No Significant change VAID 261730Z 05009KT 1500 BR SCT018 BKN100 16/14 Q1019 NOSIG
LIFR 60.8°F / 57.2°F 40º 7kt 1500m Mist Vertical Visibility of 0ft.
Broken Clouds 10000ft
1019 No Significant change VAID 261700Z 04007KT 1500 BR SCT018 BKN100 16/14 Q1019 NOSIG
LIFR 60.8°F / 57.2°F 40º 8kt 1500m Mist Vertical Visibility of 0ft.
Broken Clouds 10000ft
1019 No Significant change VAID 261630Z 04008KT 1500 BR SCT018 BKN100 16/14 Q1019 NOSIG
LIFR 60.8°F / 57.2°F 40º 8kt 1500m Mist Vertical Visibility of 0ft.
Broken Clouds 10000ft
1019 No Significant change VAID 261600Z 04008KT 1500 BR SCT018 BKN100 16/14 Q1019 NOSIG

IFR

68°F / 59°F

[More]
Wind 50º 8kt
Visibility 2000m
Weather Haze
Clouds Vertical Visibility of 0ft.
Scattered Clouds 10000ft
Pressure 1018
Change No Significant change
Raw VAID 270800Z 05008KT 2000 HZ SCT020 SCT100 20/15 Q1018 NOSIG

IFR

68°F / 59°F

[More]
Wind 20º 8kt
Visibility 2000m
Weather Haze
Clouds Vertical Visibility of 0ft.
Scattered Clouds 10000ft
Pressure 1018
Change No Significant change
Raw VAID 270730Z 02008KT 2000 HZ SCT020 SCT100 20/15 Q1018 NOSIG

IFR

68°F / 60.8°F

[More]
Wind 60º 6kt
Visibility 2000m
Weather Haze
Clouds Vertical Visibility of 0ft.
Scattered Clouds 10000ft
Pressure 1018
Change No Significant change
Raw VAID 270700Z 06006KT 2000 HZ SCT020 SCT100 20/16 Q1018 NOSIG

IFR

68°F / 60.8°F

[More]
Wind 70º 8kt
Visibility 2000m
Weather Haze
Clouds Vertical Visibility of 0ft.
Scattered Clouds 10000ft
Pressure 1019
Change No Significant change
Raw VAID 270630Z 07008KT 2000 HZ SCT020 SCT100 20/16 Q1019 NOSIG

IFR

68°F / 60.8°F

[More]
Wind 50º 8kt
Visibility 2000m
Weather Haze
Clouds Vertical Visibility of 0ft.
Scattered Clouds 10000ft
Pressure 1019
Change No Significant change
Raw VAID 270600Z 05008KT 2000 HZ SCT020 SCT100 20/16 Q1019 NOSIG

IFR

66.2°F / 60.8°F

[More]
Wind 60º 7kt
Visibility 2000m
Weather Haze
Clouds Vertical Visibility of 0ft.
Scattered Clouds 10000ft
Pressure 1020
Change Becoming: 3000M Haze .
Raw VAID 270530Z 06007KT 2000 HZ SCT020 SCT100 19/16 Q1020 BECMG 3000M HZ

IFR

64.4°F / 60.8°F

[More]
Wind 70º 9kt
Visibility 2000m
Weather Mist
Clouds Vertical Visibility of 0ft.
Broken Clouds 10000ft
Pressure 1020
Change No Significant change
Raw VAID 270500Z 07009KT 2000 BR SCT018 BKN100 18/16 Q1020 NOSIG

LIFR

62.6°F / 59°F

[More]
Wind 70º 9kt
Visibility 1500m
Weather Mist
Clouds Vertical Visibility of 0ft.
Broken Clouds 10000ft
Pressure 1020
Change No Significant change
Raw VAID 270430Z 07009KT 1500 BR SCT018 BKN100 17/15 Q1020 NOSIG

LIFR

62.6°F / 59°F

[More]
Wind 70º 9kt
Visibility 1500m
Weather Mist
Clouds Vertical Visibility of 0ft.
Broken Clouds 10000ft
Pressure 1020
Change No Significant change
Raw VAID 270400Z 07009KT 1500 BR SCT018 BKN100 17/15 Q1020 NOSIG

LIFR

62.6°F / 59°F

[More]
Wind 60º 10kt
Visibility 1500m
Weather Mist
Clouds Vertical Visibility of 0ft.
Broken Clouds 10000ft
Pressure 1020
Change No Significant change
Raw VAID 270330Z 06010KT 1500 BR SCT018 BKN100 17/15 Q1020 NOSIG

LIFR

60.8°F / 57.2°F

[More]
Wind 50º 8kt
Visibility 1200m
Weather Mist
Clouds Vertical Visibility of 0ft.
Broken Clouds 10000ft
Pressure 1020
Change No Significant change
Raw VAID 270300Z 05008KT 1200 BR SCT018 BKN100 16/14 Q1020 NOSIG

LIFR

60.8°F / 57.2°F

[More]
Wind 50º 7kt
Visibility 1200m
Weather Mist
Clouds Vertical Visibility of 0ft.
Broken Clouds 10000ft
Pressure 1019
Change No Significant change
Raw VAID 270230Z 05007KT 1200 BR SCT018 BKN100 16/14 Q1019 NOSIG

LIFR

60.8°F / 57.2°F

[More]
Wind 50º 8kt
Visibility 1200m
Weather Mist
Clouds Vertical Visibility of 0ft.
Broken Clouds 10000ft
Pressure 1019
Change No Significant change
Raw VAID 270200Z 05008KT 1200 BR SCT018 BKN100 16/14 Q1019 NOSIG

LIFR

60.8°F / 57.2°F

[More]
Wind 50º 8kt
Visibility 1200m
Weather Mist
Clouds Vertical Visibility of 0ft.
Broken Clouds 10000ft
Pressure 1019
Change No Significant change
Raw VAID 270130Z 05008KT 1200 BR SCT018 BKN100 16/14 Q1019 NOSIG

LIFR

60.8°F / 57.2°F

[More]
Wind 60º 8kt
Visibility 1500m
Weather Mist
Clouds Vertical Visibility of 0ft.
Broken Clouds 10000ft
Pressure 1019
Change No Significant change
Raw VAID 270100Z 06008KT 1500 BR SCT018 BKN100 16/14 Q1019 NOSIG

LIFR

60.8°F / 57.2°F

[More]
Wind 50º 8kt
Visibility 1500m
Weather Mist
Clouds Vertical Visibility of 0ft.
Broken Clouds 10000ft
Pressure 1018
Change No Significant change
Raw VAID 270000Z 05008KT 1500 BR SCT018 BKN100 16/14 Q1018 NOSIG

LIFR

60.8°F / 57.2°F

[More]
Wind 60º 8kt
Visibility 1500m
Weather Mist
Clouds Vertical Visibility of 0ft.
Broken Clouds 10000ft
Pressure 1017
Change No Significant change
Raw VAID 262300Z 06008KT 1500 BR SCT018 BKN100 16/14 Q1017 NOSIG

LIFR

60.8°F / 57.2°F

[More]
Wind 50º 10kt
Visibility 1500m
Weather Mist
Clouds Vertical Visibility of 0ft.
Broken Clouds 10000ft
Pressure 1018
Change No Significant change
Raw VAID 262100Z 05010KT 1500 BR SCT018 BKN100 16/14 Q1018 NOSIG

LIFR

60.8°F / 57.2°F

[More]
Wind 50º 6kt
Visibility 1500m
Weather Mist
Clouds Vertical Visibility of 0ft.
Broken Clouds 10000ft
Pressure 1018
Change No Significant change
Raw VAID 261900Z 05006KT 1500 BR SCT018 BKN100 16/14 Q1018 NOSIG

LIFR

60.8°F / 57.2°F

[More]
Wind 50º 10kt
Visibility 1500m
Weather Mist
Clouds Vertical Visibility of 0ft.
Broken Clouds 10000ft
Pressure 1018
Change No Significant change
Raw VAID 261800Z 05010KT 1500 BR SCT018 BKN100 16/14 Q1018 NOSIG

LIFR

60.8°F / 57.2°F

[More]
Wind 50º 9kt
Visibility 1500m
Weather Mist
Clouds Vertical Visibility of 0ft.
Broken Clouds 10000ft
Pressure 1019
Change No Significant change
Raw VAID 261730Z 05009KT 1500 BR SCT018 BKN100 16/14 Q1019 NOSIG

LIFR

60.8°F / 57.2°F

[More]
Wind 40º 7kt
Visibility 1500m
Weather Mist
Clouds Vertical Visibility of 0ft.
Broken Clouds 10000ft
Pressure 1019
Change No Significant change
Raw VAID 261700Z 04007KT 1500 BR SCT018 BKN100 16/14 Q1019 NOSIG

LIFR

60.8°F / 57.2°F

[More]
Wind 40º 8kt
Visibility 1500m
Weather Mist
Clouds Vertical Visibility of 0ft.
Broken Clouds 10000ft
Pressure 1019
Change No Significant change
Raw VAID 261630Z 04008KT 1500 BR SCT018 BKN100 16/14 Q1019 NOSIG

LIFR

60.8°F / 57.2°F

[More]
Wind 40º 8kt
Visibility 1500m
Weather Mist
Clouds Vertical Visibility of 0ft.
Broken Clouds 10000ft
Pressure 1019
Change No Significant change
Raw VAID 261600Z 04008KT 1500 BR SCT018 BKN100 16/14 Q1019 NOSIG

TAF for Indore (VAID)

From till


From till Wind 70º 8kt. Visibility 2000m. Haze . Scattered Clouds 2000ft. Scattered Clouds 10000ft.
Becoming from till Wind 50º 5kt. Visibility 1500m. Mist . Scattered Clouds 2000ft. Scattered Clouds 10000ft.

Raw: TAF VAID 270800Z 2709/2718 07008KT 2000 HZ SCT020 SCT100 BECMG 2713/2715 05005 KT 1500 BR

Radar for Indore

Drizzle
Light
Moderate
Heavy
Very Heavy
Hail

The location marker is placed on Indore. Drizzle or light snow fall might be invisible for the radar. Precipitation intensity is colour coded, ranging from turquoise to red.

Current satellite and rain images for Indore, India

The location marker is placed on Indore. [More]

The real-time satellite image combines visible light during daytime with infrared radiation during nighttime. At night, the image is not dark as infrared radiation can detect temperature differences. Unfortunately, low clouds and fog are difficult to distinguish from ground temperatures and thus can be almost invisible during the night. Meteosat satellite images for Europe are updated in real-time every 5 minutes. GOES-16/GOES-17 (North & South America) and Himawari (Asia) images update every 10 minutes.

Copyright 2023 EUMETSAT / meteoblue. / Copyright 2023 meteoblue

Back to top